WZZ627 DGAA-LBSF

Flight info

Callsign WZZ627
Flight time 5h 55m
Altitude 37000
Route DGAA/21 LITEX1D LITEX UA603 TAMIL UG855 TMS UB727 IMN DCT SARKI DCT LORED DCT ERNAM DCT GOKEL DCT DOBAR DCT VELBA DCT MOREK MOREK5D LBSF/09
Aircraft A21N/M-SDE2E3FGHIRWXY/LB1

Departure

Time 2026-04-22 16:13
Airport Kotoka International Airport (DGAA)

Arrival

Time 2026-04-22 22:08
Airport Sofia Airport (LBSF)
Time Latitude Longitude Altitude Speed Heading
2026-04-22 15:14 5.60220 -0.17160 217 ft 0 kts 293°
2026-04-22 16:01 5.60219 -0.17158 217 ft 2 kts 293°
2026-04-22 16:01 5.60208 -0.17134 220 ft 4 kts 295°
2026-04-22 16:01 5.60196 -0.17110 215 ft 4 kts 301°
2026-04-22 16:02 5.60181 -0.17088 214 ft 4 kts 320°
2026-04-22 16:02 5.60162 -0.17080 214 ft 3 kts 18°
2026-04-22 16:02 5.60159 -0.17081 213 ft 1 kts 22°
2026-04-22 16:07 5.60161 -0.17080 213 ft 3 kts 22°
2026-04-22 16:07 5.60197 -0.17065 214 ft 8 kts 23°
2026-04-22 16:08 5.60267 -0.17036 217 ft 13 kts 22°
2026-04-22 16:08 5.60357 -0.16999 221 ft 15 kts 22°
2026-04-22 16:08 5.60454 -0.16959 223 ft 15 kts 22°
2026-04-22 16:08 5.60557 -0.16916 225 ft 17 kts 22°
2026-04-22 16:09 5.60665 -0.16871 226 ft 17 kts 22°
2026-04-22 16:09 5.60777 -0.16825 227 ft 18 kts 22°
2026-04-22 16:09 5.60893 -0.16777 228 ft 18 kts 22°
2026-04-22 16:09 5.61013 -0.16727 229 ft 19 kts 22°
2026-04-22 16:10 5.61136 -0.16677 226 ft 19 kts 22°
2026-04-22 16:10 5.61262 -0.16625 225 ft 20 kts 22°
2026-04-22 16:10 5.61348 -0.16589 223 ft 20 kts 22°
2026-04-22 16:10 5.61524 -0.16517 218 ft 21 kts 22°
2026-04-22 16:11 5.61592 -0.16488 222 ft 9 kts 27°
2026-04-22 16:11 5.61621 -0.16435 216 ft 9 kts 82°
2026-04-22 16:11 5.61604 -0.16371 218 ft 10 kts 108°
2026-04-22 16:11 5.61573 -0.16304 223 ft 11 kts 155°
2026-04-22 16:12 5.61521 -0.16310 223 ft 0 kts 202°
2026-04-22 16:12 5.61464 -0.16334 222 ft 32 kts 202°
2026-04-22 16:12 5.61032 -0.16511 225 ft 100 kts 202°
2026-04-22 16:13 5.60185 -0.16859 214 ft 160 kts 202°
2026-04-22 16:13 5.59095 -0.17316 613 ft 168 kts 203°
2026-04-22 16:13 5.57959 -0.17788 1037 ft 185 kts 201°
2026-04-22 16:13 5.56707 -0.18222 1402 ft 197 kts 194°
2026-04-22 16:14 5.55288 -0.18155 1732 ft 217 kts 162°
2026-04-22 16:14 5.53955 -0.17296 1941 ft 245 kts 131°
2026-04-22 16:14 5.53237 -0.15684 2231 ft 265 kts 96°
2026-04-22 16:14 5.53533 -0.13848 2775 ft 272 kts 63°
2026-04-22 16:15 5.54591 -0.12317 3475 ft 271 kts 51°
2026-04-22 16:15 5.55756 -0.10833 4195 ft 271 kts 52°
2026-04-22 16:15 5.56951 -0.09369 4881 ft 272 kts 43°
2026-04-22 16:15 5.58528 -0.08322 5493 ft 274 kts 24°
2026-04-22 16:16 5.60309 -0.07620 6207 ft 275 kts 21°
2026-04-22 16:16 5.62096 -0.06947 6889 ft 274 kts 22°
2026-04-22 16:16 5.63883 -0.06254 7509 ft 276 kts 23°
2026-04-22 16:16 5.65671 -0.05542 8109 ft 278 kts 24°
2026-04-22 16:17 5.67475 -0.04814 8704 ft 280 kts 24°
2026-04-22 16:17 5.69287 -0.04077 9326 ft 282 kts 25°
2026-04-22 16:17 5.71105 -0.03333 9898 ft 284 kts 25°
2026-04-22 16:17 5.72973 -0.02565 10171 ft 297 kts 25°
2026-04-22 16:18 5.74941 -0.01754 10373 ft 313 kts 25°
2026-04-22 16:18 5.76998 -0.00906 10566 ft 328 kts 25°
2026-04-22 16:18 5.79161 -0.00015 10749 ft 343 kts 25°
2026-04-22 16:18 5.81417 0.00919 10938 ft 357 kts 25°
2026-04-22 16:19 5.83758 0.01894 11111 ft 370 kts 25°
2026-04-22 16:19 5.86185 0.02899 11293 ft 383 kts 25°
2026-04-22 16:19 5.88678 0.03921 11535 ft 391 kts 25°
2026-04-22 16:19 5.91218 0.04958 11925 ft 395 kts 24°
2026-04-22 16:20 5.93890 0.05707 12327 ft 402 kts 11°
2026-04-22 16:20 5.96671 0.05755 12713 ft 410 kts 356°
2026-04-22 16:20 5.99484 0.05177 13129 ft 416 kts 349°
2026-04-22 16:20 6.02300 0.04458 13524 ft 419 kts 348°
2026-04-22 16:21 6.05135 0.03733 13894 ft 422 kts 348°
2026-04-22 16:21 6.07988 0.03019 14262 ft 424 kts 348°
2026-04-22 16:21 6.10863 0.02311 14646 ft 426 kts 348°
2026-04-22 16:21 6.13750 0.01604 15030 ft 428 kts 348°
2026-04-22 16:22 6.19576 0.00186 15839 ft 433 kts 348°
2026-04-22 16:22 6.22519 -0.00532 16221 ft 435 kts 348°
2026-04-22 16:22 6.24468 -0.01015 16511 ft 436 kts 348°
2026-04-22 16:23 6.30376 -0.02471 17249 ft 440 kts 347°
2026-04-22 16:23 6.33359 -0.03205 17629 ft 442 kts 347°
2026-04-22 16:23 6.36365 -0.03936 17989 ft 444 kts 347°
2026-04-22 16:24 6.39374 -0.04665 18294 ft 446 kts 347°
2026-04-22 16:24 6.45431 -0.06132 18881 ft 450 kts 347°
2026-04-22 16:24 6.48481 -0.06879 19175 ft 452 kts 347°
2026-04-22 16:25 6.51553 -0.07633 19453 ft 454 kts 347°
2026-04-22 16:25 6.57721 -0.09144 20014 ft 458 kts 347°
2026-04-22 16:25 6.60821 -0.09899 20293 ft 460 kts 347°
2026-04-22 16:26 6.63975 -0.10453 20562 ft 461 kts 355°
2026-04-22 16:26 6.67186 -0.10477 20827 ft 463 kts
2026-04-22 16:26 6.70410 -0.10313 21111 ft 465 kts
2026-04-22 16:26 6.73657 -0.10130 21402 ft 467 kts
2026-04-22 16:27 6.76875 -0.09957 21674 ft 470 kts
2026-04-22 16:27 6.80146 -0.09791 21977 ft 472 kts
2026-04-22 16:27 6.83441 -0.09630 22251 ft 475 kts
2026-04-22 16:27 6.86749 -0.09467 22521 ft 477 kts
2026-04-22 16:28 6.90081 -0.09306 22809 ft 480 kts
2026-04-22 16:28 6.93417 -0.09143 23067 ft 482 kts
2026-04-22 16:28 6.96772 -0.08977 23315 ft 484 kts
2026-04-22 16:28 7.00153 -0.08812 23541 ft 486 kts
2026-04-22 16:29 7.03532 -0.08646 23780 ft 487 kts
2026-04-22 16:29 7.06918 -0.08479 24022 ft 486 kts
2026-04-22 16:29 7.10298 -0.08314 24264 ft 486 kts
2026-04-22 16:29 7.13673 -0.08147 24486 ft 486 kts
2026-04-22 16:30 7.15920 -0.08037 24605 ft 487 kts
2026-04-22 16:30 7.20410 -0.07816 24915 ft 487 kts
2026-04-22 16:30 7.23829 -0.07646 25152 ft 486 kts
2026-04-22 16:30 7.27216 -0.07478 25327 ft 487 kts
2026-04-22 16:31 7.30557 -0.07313 25527 ft 487 kts
2026-04-22 16:31 7.33929 -0.07147 25760 ft 486 kts
2026-04-22 16:31 7.37302 -0.06980 26017 ft 484 kts
2026-04-22 16:31 7.40667 -0.06814 26267 ft 483 kts
2026-04-22 16:32 7.44020 -0.06649 26529 ft 481 kts
2026-04-22 16:32 7.47358 -0.06485 26799 ft 479 kts
2026-04-22 16:32 7.50688 -0.06322 27078 ft 478 kts
2026-04-22 16:32 7.54001 -0.06159 27339 ft 476 kts
2026-04-22 16:33 7.57303 -0.05998 27602 ft 475 kts
2026-04-22 16:33 7.60600 -0.05834 27859 ft 473 kts
2026-04-22 16:33 7.63884 -0.05671 28125 ft 472 kts
2026-04-22 16:33 7.67162 -0.05508 28388 ft 470 kts
2026-04-22 16:34 7.70427 -0.05346 28661 ft 468 kts
2026-04-22 16:34 7.73674 -0.05185 28935 ft 466 kts
2026-04-22 16:34 7.76909 -0.05025 29190 ft 465 kts
2026-04-22 16:34 7.80138 -0.04866 29435 ft 463 kts
2026-04-22 16:35 7.83313 -0.04710 29699 ft 461 kts
2026-04-22 16:35 7.86511 -0.04553 29930 ft 460 kts
2026-04-22 16:35 7.89704 -0.04395 30113 ft 459 kts
2026-04-22 16:35 7.92892 -0.04237 30264 ft 459 kts
2026-04-22 16:36 7.96087 -0.04079 30416 ft 459 kts
2026-04-22 16:36 7.99272 -0.03922 30564 ft 459 kts
2026-04-22 16:36 8.02463 -0.03763 30718 ft 458 kts
2026-04-22 16:36 8.05656 -0.03604 30858 ft 458 kts
2026-04-22 16:37 8.08837 -0.03446 30985 ft 459 kts
2026-04-22 16:37 8.12039 -0.03288 31117 ft 459 kts
2026-04-22 16:37 8.15223 -0.03133 31255 ft 459 kts
2026-04-22 16:37 8.18421 -0.02976 31385 ft 459 kts
2026-04-22 16:38 8.21571 -0.02819 31511 ft 459 kts
2026-04-22 16:38 8.24761 -0.02661 31639 ft 460 kts
2026-04-22 16:38 8.27958 -0.02505 31774 ft 460 kts
2026-04-22 16:38 8.31160 -0.02347 31904 ft 460 kts
2026-04-22 16:39 8.34363 -0.02191 32044 ft 460 kts
2026-04-22 16:39 8.37561 -0.02033 32168 ft 460 kts
2026-04-22 16:39 8.40754 -0.01872 32287 ft 460 kts
2026-04-22 16:39 8.43952 -0.01711 32408 ft 460 kts
2026-04-22 16:40 8.47158 -0.01552 32520 ft 460 kts
2026-04-22 16:40 8.50356 -0.01396 32627 ft 460 kts
2026-04-22 16:40 8.56758 -0.01082 32852 ft 461 kts
2026-04-22 16:41 8.59960 -0.00924 32965 ft 461 kts
2026-04-22 16:41 8.63163 -0.00767 33066 ft 460 kts
2026-04-22 16:41 8.66361 -0.00717 33166 ft 460 kts 358°
2026-04-22 16:42 8.72766 -0.00756 33362 ft 460 kts 358°
2026-04-22 16:42 8.75965 -0.00781 33463 ft 460 kts 358°
2026-04-22 16:42 8.79164 -0.00809 33559 ft 460 kts 358°
2026-04-22 16:43 8.85567 -0.00866 33743 ft 460 kts 358°
2026-04-22 16:43 8.91924 -0.00923 33863 ft 460 kts 358°
2026-04-22 16:44 8.98336 -0.00984 33998 ft 460 kts 358°
2026-04-22 16:44 9.04737 -0.01040 34130 ft 461 kts 358°
2026-04-22 16:45 9.11166 -0.01099 34232 ft 461 kts 358°
2026-04-22 16:45 9.17585 -0.01145 34355 ft 461 kts 358°
2026-04-22 16:46 9.24010 -0.01202 34466 ft 462 kts 358°
2026-04-22 16:46 9.30438 -0.01270 34577 ft 462 kts 358°
2026-04-22 16:47 9.36872 -0.01334 34682 ft 462 kts 358°
2026-04-22 16:47 9.42217 -0.01385 34762 ft 462 kts 357°
2026-04-22 16:48 9.49697 -0.01454 34865 ft 462 kts 358°
2026-04-22 16:48 9.56128 -0.01514 34970 ft 462 kts 358°
2026-04-22 16:49 9.62568 -0.01568 35055 ft 462 kts 357°
2026-04-22 16:49 9.69009 -0.01634 35139 ft 463 kts 357°
2026-04-22 16:50 9.75463 -0.01702 35213 ft 463 kts 357°
2026-04-22 16:50 9.81902 -0.01760 35278 ft 463 kts 357°
2026-04-22 16:51 9.88353 -0.01817 35342 ft 463 kts 357°
2026-04-22 16:51 9.94804 -0.01879 35389 ft 464 kts 357°
2026-04-22 16:52 10.01260 -0.01943 35455 ft 464 kts 357°
2026-04-22 16:52 10.07720 -0.02003 35511 ft 464 kts 357°
2026-04-22 16:53 10.14195 -0.02058 35559 ft 464 kts 357°
2026-04-22 16:53 10.20657 -0.02120 35607 ft 464 kts 357°
2026-04-22 16:54 10.27112 -0.02185 35664 ft 464 kts 357°
2026-04-22 16:54 10.33533 -0.02242 35730 ft 464 kts 357°
2026-04-22 16:55 10.39989 -0.02302 35790 ft 464 kts 356°
2026-04-22 16:55 10.46439 -0.02369 35829 ft 463 kts 356°
2026-04-22 16:56 10.52885 -0.02425 35870 ft 463 kts 356°
2026-04-22 16:56 10.59327 -0.02400 35888 ft 465 kts
2026-04-22 16:56 10.62511 -0.01818 35862 ft 469 kts 14°
2026-04-22 16:57 10.65539 -0.00531 35828 ft 475 kts 27°
2026-04-22 16:57 10.68226 0.01449 35796 ft 480 kts 39°
2026-04-22 16:57 10.70645 0.03799 35800 ft 481 kts 42°
2026-04-22 16:58 10.74607 0.07768 35827 ft 481 kts 41°
2026-04-22 16:58 10.80249 0.13293 35857 ft 481 kts 40°
2026-04-22 16:59 10.85088 0.17993 35886 ft 481 kts 40°
2026-04-22 16:59 10.89931 0.22702 35911 ft 482 kts 40°
2026-04-22 17:00 10.94775 0.27414 35941 ft 481 kts 40°
2026-04-22 17:00 10.99566 0.32049 35674 ft 473 kts 38°
2026-04-22 17:00 11.02131 0.34117 35682 ft 471 kts 33°
2026-04-22 17:01 11.07421 0.38075 35706 ft 472 kts 32°
2026-04-22 17:01 11.12710 0.42026 35711 ft 472 kts 32°
2026-04-22 17:02 11.17997 0.45991 35709 ft 472 kts 32°
2026-04-22 17:02 11.23303 0.49973 35709 ft 474 kts 32°
2026-04-22 17:03 11.28572 0.53926 35705 ft 473 kts 32°
2026-04-22 17:03 11.33851 0.57899 35722 ft 468 kts 34°
2026-04-22 17:04 11.39103 0.61841 35711 ft 470 kts 34°
2026-04-22 17:04 11.44354 0.65789 35710 ft 470 kts 34°
2026-04-22 17:05 11.49607 0.69733 35711 ft 469 kts 34°
2026-04-22 17:05 11.54867 0.73694 35714 ft 469 kts 34°
2026-04-22 17:06 11.60086 0.77617 35712 ft 469 kts 34°
2026-04-22 17:06 11.65336 0.81570 35710 ft 468 kts 34°
2026-04-22 17:07 11.70587 0.85529 35713 ft 469 kts 34°
2026-04-22 17:07 11.74962 0.88824 35717 ft 470 kts 34°
2026-04-22 17:08 11.80217 0.92787 35720 ft 470 kts 34°
2026-04-22 17:08 11.85480 0.96759 35722 ft 470 kts 34°
2026-04-22 17:09 11.90738 1.00724 35723 ft 470 kts 34°
2026-04-22 17:09 11.95997 1.04699 35728 ft 470 kts 34°
2026-04-22 17:10 12.01226 1.08651 35727 ft 470 kts 34°
2026-04-22 17:10 12.06489 1.12634 35731 ft 470 kts 34°
2026-04-22 17:11 12.11746 1.16609 35733 ft 471 kts 34°
2026-04-22 17:11 12.16995 1.20608 35740 ft 470 kts 34°
2026-04-22 17:12 12.22247 1.24609 35737 ft 470 kts 34°
2026-04-22 17:12 12.27503 1.28596 35741 ft 470 kts 33°
2026-04-22 17:13 12.32759 1.32583 35740 ft 471 kts 33°
2026-04-22 17:13 12.38006 1.36575 35744 ft 470 kts 33°
2026-04-22 17:14 12.43263 1.40568 35747 ft 470 kts 33°
2026-04-22 17:14 12.48523 1.44567 35744 ft 470 kts 33°
2026-04-22 17:15 12.53772 1.48563 35747 ft 470 kts 33°
2026-04-22 17:15 12.59022 1.52573 35745 ft 471 kts 33°
2026-04-22 17:16 12.64254 1.56530 35751 ft 471 kts 33°
2026-04-22 17:16 12.69508 1.60521 35751 ft 471 kts 33°
2026-04-22 17:17 12.74757 1.64525 35751 ft 471 kts 33°
2026-04-22 17:17 12.80008 1.68526 35750 ft 471 kts 33°
2026-04-22 17:18 12.85253 1.72536 35757 ft 471 kts 33°
2026-04-22 17:18 12.90500 1.76554 35759 ft 471 kts 33°
2026-04-22 17:19 13.00999 1.84576 35756 ft 470 kts 33°
2026-04-22 17:20 13.11480 1.92587 35757 ft 471 kts 32°
2026-04-22 17:21 13.19334 1.98606 35773 ft 469 kts 32°
2026-04-22 17:22 13.27187 2.04627 35778 ft 470 kts 32°
2026-04-22 17:23 13.35038 2.10647 35777 ft 469 kts 32°
2026-04-22 17:23 13.42849 2.16649 35790 ft 470 kts 32°
2026-04-22 17:24 13.48184 2.20468 35778 ft 464 kts 23°
2026-04-22 17:24 13.54155 2.22803 35790 ft 455 kts 12°
2026-04-22 17:25 13.60198 2.24774 35790 ft 456 kts 13°
2026-04-22 17:25 13.66228 2.26791 35786 ft 456 kts 13°
2026-04-22 17:26 13.72267 2.28830 35892 ft 456 kts 13°
2026-04-22 17:26 13.78299 2.30870 36016 ft 456 kts 13°
2026-04-22 17:27 13.84328 2.32908 36113 ft 456 kts 13°
2026-04-22 17:27 13.90317 2.34935 36210 ft 456 kts 13°
2026-04-22 17:28 13.96345 2.36967 36302 ft 456 kts 13°
2026-04-22 17:28 14.02397 2.39010 36386 ft 457 kts 13°
2026-04-22 17:29 14.08443 2.41059 36458 ft 458 kts 13°
2026-04-22 17:29 14.14496 2.43109 36520 ft 458 kts 13°
2026-04-22 17:30 14.20562 2.45164 36576 ft 459 kts 13°
2026-04-22 17:30 14.26637 2.47231 36619 ft 460 kts 13°
2026-04-22 17:31 14.32678 2.49278 36667 ft 460 kts 12°
2026-04-22 17:31 14.38766 2.51347 36717 ft 461 kts 12°
2026-04-22 17:32 14.44904 2.53427 36746 ft 462 kts 12°
2026-04-22 17:32 14.51024 2.55501 36766 ft 463 kts 12°
2026-04-22 17:33 14.57110 2.57566 36762 ft 464 kts 12°
2026-04-22 17:33 14.63249 2.59655 36766 ft 464 kts 12°
2026-04-22 17:34 14.69390 2.61753 36767 ft 464 kts 12°
2026-04-22 17:34 14.75520 2.63837 36764 ft 463 kts 12°
2026-04-22 17:35 14.81646 2.65922 36765 ft 464 kts 12°
2026-04-22 17:35 14.87779 2.68016 36766 ft 463 kts 12°
2026-04-22 17:36 14.93894 2.70102 36764 ft 463 kts 12°
2026-04-22 17:36 15.00013 2.72192 36767 ft 462 kts 12°
2026-04-22 17:37 15.06126 2.74281 36771 ft 462 kts 12°
2026-04-22 17:37 15.12228 2.76365 36770 ft 462 kts 12°
2026-04-22 17:38 15.18292 2.78442 36772 ft 462 kts 12°
2026-04-22 17:38 15.24394 2.80526 36774 ft 461 kts 12°
2026-04-22 17:39 15.30488 2.82614 36774 ft 461 kts 12°
2026-04-22 17:40 15.39614 2.85744 36776 ft 460 kts 12°
2026-04-22 17:40 15.45694 2.87831 36785 ft 459 kts 11°
2026-04-22 17:41 15.51770 2.89913 36776 ft 459 kts 11°
2026-04-22 17:41 15.57787 2.91977 36776 ft 458 kts 11°
2026-04-22 17:42 15.63832 2.94056 36790 ft 457 kts 11°
2026-04-22 17:42 15.68897 2.95792 36782 ft 457 kts 11°
2026-04-22 17:43 15.75902 2.98210 36784 ft 456 kts 11°
2026-04-22 17:43 15.81921 3.00276 36791 ft 455 kts 11°
2026-04-22 17:44 15.87936 3.02347 36805 ft 455 kts 11°
2026-04-22 17:44 15.93935 3.04416 36789 ft 454 kts 10°
2026-04-22 17:45 15.99922 3.06481 36788 ft 453 kts 10°
2026-04-22 17:45 16.05916 3.08550 36790 ft 453 kts 10°
2026-04-22 17:46 16.11909 3.10621 36802 ft 453 kts 10°
2026-04-22 17:46 16.17844 3.12669 36797 ft 453 kts 10°
2026-04-22 17:47 16.23831 3.14736 36795 ft 452 kts 10°
2026-04-22 17:47 16.29795 3.16801 36800 ft 452 kts 10°
2026-04-22 17:48 16.34812 3.18539 36800 ft 454 kts 10°
2026-04-22 17:48 16.41751 3.20944 36792 ft 452 kts
2026-04-22 17:49 16.47728 3.23024 36795 ft 454 kts
2026-04-22 17:49 16.53706 3.25096 36796 ft 452 kts
2026-04-22 17:50 16.59687 3.27168 36793 ft 454 kts
2026-04-22 17:50 16.65682 3.29261 36793 ft 452 kts
2026-04-22 17:51 16.71656 3.31347 36794 ft 453 kts
2026-04-22 17:51 16.76640 3.33077 36793 ft 455 kts
2026-04-22 17:52 16.82662 3.35175 36791 ft 456 kts
2026-04-22 17:52 16.88659 3.37261 36786 ft 454 kts
2026-04-22 17:53 16.94659 3.39355 36794 ft 456 kts
2026-04-22 17:53 17.00670 3.41452 36789 ft 453 kts
2026-04-22 17:54 17.06622 3.43534 36789 ft 455 kts
2026-04-22 17:54 17.12677 3.45642 36784 ft 455 kts
2026-04-22 17:55 17.18625 3.47723 36787 ft 454 kts
2026-04-22 17:55 17.24627 3.49824 36787 ft 454 kts
2026-04-22 17:56 17.30607 3.51916 36787 ft 454 kts
2026-04-22 17:56 17.36611 3.54021 36788 ft 455 kts
2026-04-22 17:57 17.42587 3.56117 36786 ft 453 kts
2026-04-22 17:57 17.48585 3.58223 36785 ft 455 kts
2026-04-22 17:58 17.54569 3.60328 36786 ft 452 kts
2026-04-22 17:58 17.60540 3.62427 36792 ft 454 kts
2026-04-22 17:59 17.66524 3.64532 36794 ft 451 kts
2026-04-22 17:59 17.72492 3.66631 36800 ft 453 kts
2026-04-22 18:00 17.77467 3.68382 36795 ft 452 kts
2026-04-22 18:00 17.84442 3.70845 36795 ft 453 kts
2026-04-22 18:01 17.90377 3.72941 36792 ft 451 kts
2026-04-22 18:01 17.96322 3.75036 36797 ft 452 kts
2026-04-22 18:02 18.02297 3.77147 36801 ft 451 kts
2026-04-22 18:02 18.08258 3.79255 36804 ft 451 kts
2026-04-22 18:03 18.14180 3.81349 36798 ft 451 kts
2026-04-22 18:03 18.20114 3.83453 36800 ft 451 kts
2026-04-22 18:04 18.26080 3.85569 36806 ft 451 kts
2026-04-22 18:04 18.32015 3.87675 36803 ft 451 kts
2026-04-22 18:05 18.37979 3.89787 36807 ft 451 kts
2026-04-22 18:05 18.43915 3.91896 36803 ft 451 kts
2026-04-22 18:06 18.49880 3.94015 36806 ft 452 kts
2026-04-22 18:06 18.55820 3.96130 36805 ft 451 kts
2026-04-22 18:07 18.61740 3.98239 36808 ft 450 kts
2026-04-22 18:07 18.67674 4.00357 36807 ft 451 kts
2026-04-22 18:08 18.73632 4.02477 36806 ft 450 kts
2026-04-22 18:08 18.79555 4.04590 36812 ft 450 kts
2026-04-22 18:09 18.85495 4.06718 36806 ft 449 kts
2026-04-22 18:09 18.91392 4.08821 36810 ft 451 kts
2026-04-22 18:10 18.97311 4.10937 36804 ft 448 kts
2026-04-22 18:10 19.03242 4.13053 36810 ft 450 kts
2026-04-22 18:11 19.09142 4.15164 36803 ft 448 kts
2026-04-22 18:11 19.15060 4.17277 36803 ft 446 kts
2026-04-22 18:12 19.20962 4.19271 36797 ft 446 kts
2026-04-22 18:12 19.25886 4.20932 36811 ft 446 kts
2026-04-22 18:13 19.32781 4.23278 36801 ft 446 kts
2026-04-22 18:13 19.38681 4.25291 36808 ft 444 kts
2026-04-22 18:14 19.44583 4.27300 36816 ft 447 kts
2026-04-22 18:14 19.50475 4.29312 36807 ft 444 kts
2026-04-22 18:15 19.56386 4.31328 36814 ft 446 kts
2026-04-22 18:15 19.62233 4.33330 36811 ft 444 kts
2026-04-22 18:16 19.68126 4.35343 36817 ft 444 kts
2026-04-22 18:16 19.74007 4.37356 36814 ft 445 kts
2026-04-22 18:17 19.79886 4.39370 36813 ft 443 kts
2026-04-22 18:17 19.85767 4.41383 36818 ft 445 kts
2026-04-22 18:18 19.91634 4.43397 36814 ft 444 kts
2026-04-22 18:18 19.97492 4.45410 36811 ft 441 kts
2026-04-22 18:19 20.03350 4.47419 36817 ft 442 kts
2026-04-22 18:19 20.09201 4.49434 36812 ft 442 kts
2026-04-22 18:20 20.14997 4.51430 36808 ft 440 kts
2026-04-22 18:20 20.20833 4.53435 36804 ft 442 kts
2026-04-22 18:21 20.26661 4.55446 36806 ft 439 kts
2026-04-22 18:21 20.32489 4.57454 36814 ft 440 kts
2026-04-22 18:22 20.38303 4.59462 36810 ft 440 kts
2026-04-22 18:22 20.44105 4.61469 36810 ft 438 kts
2026-04-22 18:23 20.49911 4.63474 36811 ft 437 kts
2026-04-22 18:23 20.55710 4.65480 36812 ft 439 kts
2026-04-22 18:24 20.64397 4.68488 36812 ft 438 kts
2026-04-22 18:25 20.73036 4.71485 36813 ft 438 kts
2026-04-22 18:25 20.78813 4.73491 36806 ft 436 kts
2026-04-22 18:26 20.87481 4.76502 36813 ft 436 kts
2026-04-22 18:26 20.93244 4.78510 36813 ft 435 kts
2026-04-22 18:27 20.99017 4.80516 36817 ft 436 kts
2026-04-22 18:27 21.04775 4.82523 36813 ft 436 kts
2026-04-22 18:28 21.10544 4.84533 36813 ft 435 kts
2026-04-22 18:28 21.16320 4.86549 36817 ft 435 kts
2026-04-22 18:29 21.22078 4.88560 36820 ft 437 kts
2026-04-22 18:29 21.27842 4.90573 36820 ft 436 kts
2026-04-22 18:30 21.36455 4.93587 36823 ft 436 kts
2026-04-22 18:31 21.42221 4.95609 36820 ft 434 kts
2026-04-22 18:31 21.47987 4.97628 36823 ft 436 kts
2026-04-22 18:32 21.52767 4.99306 36826 ft 436 kts
2026-04-22 18:32 21.59513 5.01675 36827 ft 436 kts
2026-04-22 18:33 21.65279 5.03701 36826 ft 435 kts
2026-04-22 18:33 21.71041 5.05727 36833 ft 434 kts
2026-04-22 18:34 21.76757 5.07738 36823 ft 434 kts
2026-04-22 18:34 21.82526 5.09769 36827 ft 437 kts
2026-04-22 18:35 21.88277 5.11800 36828 ft 436 kts
2026-04-22 18:35 21.94048 5.13839 36826 ft 435 kts
2026-04-22 18:36 21.99818 5.15875 36832 ft 434 kts
2026-04-22 18:36 22.05582 5.17911 36835 ft 436 kts
2026-04-22 18:37 22.10366 5.19604 36845 ft 436 kts
2026-04-22 18:37 22.16133 5.21646 36847 ft 436 kts
2026-04-22 18:38 22.22843 5.24024 36847 ft 436 kts
2026-04-22 18:38 22.27676 5.25739 36855 ft 437 kts
2026-04-22 18:39 22.36330 5.28813 36865 ft 437 kts
2026-04-22 18:39 22.42074 5.30854 36874 ft 437 kts
2026-04-22 18:40 22.47851 5.32909 36890 ft 437 kts
2026-04-22 18:40 22.53629 5.34968 36950 ft 437 kts
2026-04-22 18:41 22.59405 5.37026 37006 ft 436 kts
2026-04-22 18:41 22.65187 5.39085 37052 ft 437 kts
2026-04-22 18:42 22.70967 5.41149 37099 ft 437 kts
2026-04-22 18:42 22.76753 5.43218 37114 ft 439 kts
2026-04-22 18:43 22.82419 5.45919 37109 ft 463 kts 21°
2026-04-22 18:43 22.87692 5.50075 37119 ft 469 kts 25°
2026-04-22 18:44 22.92921 5.54298 37088 ft 468 kts 25°
2026-04-22 18:44 22.98182 5.58484 37051 ft 469 kts 25°
2026-04-22 18:45 23.03415 5.62642 37020 ft 470 kts 25°
2026-04-22 18:45 23.08678 5.66839 36995 ft 469 kts 25°
2026-04-22 18:46 23.13940 5.71027 36998 ft 470 kts 25°
2026-04-22 18:46 23.19215 5.75235 36997 ft 470 kts 25°
2026-04-22 18:47 23.24490 5.79454 36992 ft 469 kts 25°
2026-04-22 18:47 23.29757 5.83658 37008 ft 470 kts 25°
2026-04-22 18:48 23.35025 5.87871 37001 ft 469 kts 25°
2026-04-22 18:48 23.40277 5.92094 37000 ft 470 kts 26°
2026-04-22 18:49 23.45532 5.96332 37002 ft 471 kts 26°
2026-04-22 18:49 23.50813 6.00546 36999 ft 470 kts 26°
2026-04-22 18:50 23.56084 6.04764 36987 ft 470 kts 26°
2026-04-22 18:50 23.61305 6.08963 36988 ft 471 kts 26°
2026-04-22 18:51 23.66563 6.13201 36969 ft 471 kts 26°
2026-04-22 18:51 23.71826 6.17434 36949 ft 469 kts 26°
2026-04-22 18:52 23.77090 6.21678 36955 ft 470 kts 26°
2026-04-22 18:52 23.82362 6.25941 36951 ft 470 kts 26°
2026-04-22 18:53 23.87632 6.30200 36937 ft 470 kts 27°
2026-04-22 18:53 23.92913 6.34475 36939 ft 473 kts 27°
2026-04-22 18:54 23.98186 6.38754 36936 ft 472 kts 27°
2026-04-22 18:54 24.03472 6.43028 36929 ft 471 kts 27°
2026-04-22 18:55 24.08761 6.47319 36923 ft 473 kts 27°
2026-04-22 18:55 24.14031 6.51599 36919 ft 473 kts 27°
2026-04-22 18:56 24.19282 6.55871 36917 ft 473 kts 27°
2026-04-22 18:56 24.24562 6.60182 36909 ft 472 kts 28°
2026-04-22 18:57 24.29858 6.64493 36908 ft 474 kts 28°
2026-04-22 18:57 24.35153 6.68815 36908 ft 475 kts 28°
2026-04-22 18:58 24.40453 6.73137 36906 ft 476 kts 28°
2026-04-22 18:58 24.45761 6.77479 36898 ft 475 kts 28°
2026-04-22 18:59 24.51076 6.81849 36896 ft 476 kts 28°
2026-04-22 18:59 24.56388 6.86211 36897 ft 478 kts 28°
2026-04-22 19:00 24.61709 6.90573 36901 ft 478 kts 28°
2026-04-22 19:00 24.67035 6.94934 36902 ft 477 kts 28°
2026-04-22 19:01 24.72351 6.99298 36911 ft 477 kts 29°
2026-04-22 19:01 24.77669 7.03676 36922 ft 478 kts 29°
2026-04-22 19:02 24.82991 7.08055 36921 ft 477 kts 29°
2026-04-22 19:02 24.88272 7.12409 36925 ft 477 kts 29°
2026-04-22 19:03 24.93585 7.16794 36932 ft 476 kts 30°
2026-04-22 19:03 24.98894 7.21155 36935 ft 475 kts 29°
2026-04-22 19:04 25.04247 7.25492 36952 ft 478 kts 30°
2026-04-22 19:04 25.09577 7.29842 36953 ft 478 kts 30°
2026-04-22 19:05 25.14932 7.34205 36962 ft 478 kts 30°
2026-04-22 19:05 25.20274 7.38567 36965 ft 479 kts 30°
2026-04-22 19:06 25.25632 7.42909 36966 ft 478 kts 30°
2026-04-22 19:07 25.33663 7.49457 36970 ft 479 kts 31°
2026-04-22 19:07 25.39021 7.53828 36970 ft 479 kts 31°
2026-04-22 19:08 25.44374 7.58207 36966 ft 478 kts 31°
2026-04-22 19:08 25.49696 7.62570 36959 ft 479 kts 31°
2026-04-22 19:09 25.55053 7.66967 36958 ft 479 kts 31°
2026-04-22 19:09 25.59524 7.70632 36950 ft 480 kts 31°
2026-04-22 19:10 25.65791 7.75791 36941 ft 480 kts 31°
2026-04-22 19:10 25.71168 7.80217 36934 ft 480 kts 31°
2026-04-22 19:11 25.76541 7.84637 36927 ft 481 kts 31°
2026-04-22 19:11 25.81885 7.89045 36921 ft 481 kts 31°
2026-04-22 19:12 25.87247 7.93478 36910 ft 482 kts 32°
2026-04-22 19:12 25.92619 7.97946 36895 ft 482 kts 32°
2026-04-22 19:13 25.97998 8.02382 36901 ft 480 kts 32°
2026-04-22 19:13 26.03374 8.06819 36891 ft 482 kts 31°
2026-04-22 19:14 26.08731 8.11203 36881 ft 481 kts 31°
2026-04-22 19:14 26.14110 8.15634 36867 ft 481 kts 32°
2026-04-22 19:15 26.18575 8.19314 36863 ft 481 kts 32°
2026-04-22 19:15 26.24865 8.24498 36857 ft 481 kts 32°
2026-04-22 19:16 26.30261 8.28943 36855 ft 481 kts 32°
2026-04-22 19:16 26.35653 8.33400 36839 ft 481 kts 32°
2026-04-22 19:17 26.41036 8.37863 36840 ft 482 kts 32°
2026-04-22 19:17 26.46425 8.42324 36830 ft 483 kts 32°
2026-04-22 19:18 26.51822 8.46792 36834 ft 484 kts 32°
2026-04-22 19:18 26.57181 8.51243 36839 ft 483 kts 32°
2026-04-22 19:19 26.62564 8.55717 36847 ft 483 kts 32°
2026-04-22 19:19 26.67951 8.60204 36849 ft 483 kts 32°
2026-04-22 19:20 26.73365 8.64610 36846 ft 481 kts 30°
2026-04-22 19:20 26.78903 8.68799 36847 ft 480 kts 29°
2026-04-22 19:21 26.84445 8.72983 36835 ft 479 kts 29°
2026-04-22 19:21 26.89054 8.76476 36831 ft 480 kts 29°
2026-04-22 19:22 26.94581 8.80667 36815 ft 480 kts 29°
2026-04-22 19:22 27.00106 8.84862 36804 ft 480 kts 29°
2026-04-22 19:23 27.05635 8.89026 36796 ft 479 kts 29°
2026-04-22 19:23 27.11163 8.93203 36799 ft 477 kts 29°
2026-04-22 19:24 27.16691 8.97373 36790 ft 477 kts 29°
2026-04-22 19:24 27.22212 9.01553 36802 ft 479 kts 29°
2026-04-22 19:25 27.27728 9.05735 36794 ft 479 kts 30°
2026-04-22 19:25 27.33249 9.09924 36791 ft 480 kts 30°
2026-04-22 19:26 27.38763 9.14104 36787 ft 478 kts 30°
2026-04-22 19:26 27.44249 9.18278 36795 ft 477 kts 30°
2026-04-22 19:27 27.49766 9.22476 36794 ft 478 kts 30°
2026-04-22 19:27 27.55293 9.26691 36796 ft 481 kts 30°
2026-04-22 19:28 27.60818 9.30907 36799 ft 480 kts 30°
2026-04-22 19:28 27.66350 9.35136 36802 ft 480 kts 30°
2026-04-22 19:29 27.71886 9.39369 36804 ft 481 kts 30°
2026-04-22 19:29 27.77419 9.43612 36801 ft 483 kts 30°
2026-04-22 19:30 27.82026 9.47143 36813 ft 481 kts 30°
2026-04-22 19:30 27.88497 9.52110 36843 ft 480 kts 30°
2026-04-22 19:31 27.94041 9.56372 36863 ft 481 kts 30°
2026-04-22 19:31 27.99569 9.60631 36878 ft 481 kts 30°
2026-04-22 19:32 28.05101 9.64893 36883 ft 482 kts 29°
2026-04-22 19:32 28.10914 9.68404 36879 ft 476 kts 20°
2026-04-22 19:33 28.16878 9.71573 36865 ft 474 kts 20°
2026-04-22 19:33 28.22860 9.74734 36857 ft 473 kts 20°
2026-04-22 19:34 28.28801 9.77912 36837 ft 472 kts 20°
2026-04-22 19:34 28.34747 9.81098 36817 ft 471 kts 20°
2026-04-22 19:35 28.40691 9.84281 36813 ft 471 kts 20°
2026-04-22 19:35 28.46587 9.87443 36821 ft 471 kts 20°
2026-04-22 19:36 28.52500 9.90622 36821 ft 472 kts 20°
2026-04-22 19:36 28.58416 9.93803 36820 ft 471 kts 20°
2026-04-22 19:37 28.64333 9.96990 36820 ft 469 kts 20°
2026-04-22 19:37 28.70241 10.00175 36820 ft 468 kts 21°
2026-04-22 19:38 28.76138 10.03382 36825 ft 469 kts 21°
2026-04-22 19:38 28.82043 10.06571 36829 ft 470 kts 20°
2026-04-22 19:39 28.87957 10.09762 36828 ft 471 kts 21°
2026-04-22 19:39 28.93867 10.12982 36824 ft 471 kts 21°
2026-04-22 19:40 28.99735 10.16173 36821 ft 471 kts 21°
2026-04-22 19:40 29.05648 10.19389 36822 ft 470 kts 21°
2026-04-22 19:41 29.11556 10.22603 36820 ft 469 kts 21°
2026-04-22 19:41 29.17466 10.25820 36819 ft 469 kts 20°
2026-04-22 19:42 29.23378 10.29023 36817 ft 469 kts 21°
2026-04-22 19:42 29.29284 10.32240 36818 ft 470 kts 21°
2026-04-22 19:43 29.38114 10.37064 36820 ft 470 kts 21°
2026-04-22 19:43 29.44015 10.40297 36818 ft 469 kts 21°
2026-04-22 19:44 29.49906 10.43531 36816 ft 468 kts 21°
2026-04-22 19:44 29.55801 10.46770 36811 ft 468 kts 21°
2026-04-22 19:45 29.61658 10.49991 36812 ft 469 kts 21°
2026-04-22 19:45 29.67530 10.53230 36813 ft 469 kts 21°
2026-04-22 19:46 29.73418 10.56476 36811 ft 469 kts 21°
2026-04-22 19:46 29.79280 10.59716 36815 ft 469 kts 21°
2026-04-22 19:47 29.85151 10.62975 36812 ft 469 kts 21°
2026-04-22 19:47 29.91018 10.66231 36810 ft 468 kts 21°
2026-04-22 19:48 29.96880 10.69491 36808 ft 467 kts 21°
2026-04-22 19:48 30.02752 10.72719 36812 ft 467 kts 21°
2026-04-22 19:49 30.08607 10.75963 36815 ft 468 kts 21°
2026-04-22 19:49 30.14460 10.79223 36813 ft 467 kts 21°
2026-04-22 19:50 30.20304 10.82478 36817 ft 466 kts 21°
2026-04-22 19:50 30.26159 10.85749 36824 ft 465 kts 21°
2026-04-22 19:51 30.31997 10.89022 36826 ft 465 kts 21°
2026-04-22 19:51 30.37796 10.92268 36830 ft 466 kts 21°
2026-04-22 19:52 30.43623 10.95525 36836 ft 465 kts 21°
2026-04-22 19:52 30.49455 10.98785 36835 ft 466 kts 21°
2026-04-22 19:53 30.55278 11.02056 36835 ft 465 kts 21°
2026-04-22 19:53 30.61093 11.05334 36842 ft 466 kts 21°
2026-04-22 19:54 30.66914 11.08614 36846 ft 466 kts 21°
2026-04-22 19:54 30.72735 11.11890 36847 ft 465 kts 21°
2026-04-22 19:55 30.78560 11.15177 36854 ft 465 kts 21°
2026-04-22 19:55 30.84390 11.18484 36855 ft 465 kts 21°
2026-04-22 19:56 30.90170 11.21756 36861 ft 465 kts 21°
2026-04-22 19:56 30.96003 11.25062 36858 ft 465 kts 21°
2026-04-22 19:57 31.01821 11.28365 36870 ft 465 kts 21°
2026-04-22 19:57 31.07651 11.31680 36873 ft 465 kts 21°
2026-04-22 19:58 31.13483 11.35001 36879 ft 465 kts 22°
2026-04-22 19:58 31.19291 11.38316 36881 ft 464 kts 21°
2026-04-22 20:00 31.39611 11.49984 36891 ft 464 kts 22°
2026-04-22 20:01 31.45408 11.53289 36895 ft 464 kts 21°
2026-04-22 20:01 31.51205 11.56598 36902 ft 464 kts 21°
2026-04-22 20:02 31.56999 11.59925 36907 ft 463 kts 22°
2026-04-22 20:02 31.62789 11.63264 36896 ft 463 kts 22°
2026-04-22 20:03 31.68533 11.66583 36900 ft 463 kts 22°
2026-04-22 20:03 31.74316 11.69936 36915 ft 464 kts 22°
2026-04-22 20:04 31.80096 11.73303 36915 ft 464 kts 22°
2026-04-22 20:04 31.85886 11.76659 36906 ft 463 kts 22°
2026-04-22 20:05 31.91664 11.80021 36917 ft 463 kts 22°
2026-04-22 20:05 31.97450 11.83367 36912 ft 463 kts 22°
2026-04-22 20:06 32.03234 11.86722 36904 ft 463 kts 22°
2026-04-22 20:06 32.08038 11.89519 36907 ft 464 kts 22°
2026-04-22 20:07 32.14761 11.93448 36909 ft 463 kts 22°
2026-04-22 20:07 32.19613 11.96279 36906 ft 464 kts 22°
2026-04-22 20:08 32.25394 11.99658 36907 ft 464 kts 22°
2026-04-22 20:08 32.31145 12.03024 36896 ft 465 kts 22°
2026-04-22 20:09 32.36934 12.06401 36897 ft 465 kts 22°
2026-04-22 20:09 32.42721 12.09795 36905 ft 464 kts 22°
2026-04-22 20:10 32.48507 12.13200 36906 ft 464 kts 22°
2026-04-22 20:10 32.54288 12.16608 36904 ft 465 kts 22°
2026-04-22 20:11 32.60069 12.20018 36905 ft 464 kts 22°
2026-04-22 20:11 32.65855 12.23432 36905 ft 464 kts 22°
2026-04-22 20:12 32.71624 12.26853 36905 ft 464 kts 22°
2026-04-22 20:12 32.77413 12.30288 36907 ft 465 kts 22°
2026-04-22 20:13 32.83178 12.33711 36906 ft 464 kts 22°
2026-04-22 20:13 32.88944 12.37132 36901 ft 464 kts 22°
2026-04-22 20:14 32.94710 12.40568 36909 ft 463 kts 22°
2026-04-22 20:14 33.00467 12.43998 36916 ft 462 kts 22°
2026-04-22 20:15 33.06227 12.47430 36910 ft 463 kts 22°
2026-04-22 20:15 33.11974 12.50870 36919 ft 463 kts 22°
2026-04-22 20:16 33.17687 12.54293 36915 ft 463 kts 22°
2026-04-22 20:16 33.23425 12.57733 36919 ft 462 kts 22°
2026-04-22 20:17 33.29172 12.61184 36930 ft 462 kts 22°
2026-04-22 20:17 33.34914 12.64639 36926 ft 462 kts 22°
2026-04-22 20:18 33.40647 12.68091 36930 ft 462 kts 22°
2026-04-22 20:18 33.46386 12.71553 36921 ft 461 kts 22°
2026-04-22 20:19 33.52115 12.75015 36933 ft 461 kts 22°
2026-04-22 20:19 33.57845 12.78475 36933 ft 461 kts 22°
2026-04-22 20:20 33.63532 12.81926 36930 ft 461 kts 22°
2026-04-22 20:20 33.69256 12.85399 36933 ft 461 kts 22°
2026-04-22 20:21 33.74978 12.88873 36934 ft 461 kts 22°
2026-04-22 20:21 33.80706 12.92384 36937 ft 461 kts 22°
2026-04-22 20:22 33.86418 12.95875 36942 ft 461 kts 22°
2026-04-22 20:22 33.92137 12.99362 36940 ft 461 kts 22°
2026-04-22 20:23 33.97850 13.02855 36942 ft 460 kts 22°
2026-04-22 20:23 34.03563 13.06365 36941 ft 460 kts 22°
2026-04-22 20:24 34.09274 13.09863 36934 ft 460 kts 21°
2026-04-22 20:24 34.14960 13.13349 36941 ft 459 kts 21°
2026-04-22 20:25 34.20677 13.16855 36944 ft 460 kts 22°
2026-04-22 20:25 34.26380 13.20375 36944 ft 460 kts 22°
2026-04-22 20:26 34.32074 13.23928 36945 ft 461 kts 25°
2026-04-22 20:26 34.37232 13.28682 36948 ft 469 kts 37°
2026-04-22 20:27 34.42103 13.33882 36949 ft 469 kts 37°
2026-04-22 20:27 34.47008 13.39092 36949 ft 469 kts 37°
2026-04-22 20:28 34.51923 13.44313 36945 ft 468 kts 37°
2026-04-22 20:28 34.56820 13.49529 36951 ft 468 kts 37°
2026-04-22 20:29 34.61725 13.54752 36950 ft 468 kts 37°
2026-04-22 20:29 34.66626 13.59968 36946 ft 468 kts 37°
2026-04-22 20:30 34.71523 13.65187 36954 ft 468 kts 37°
2026-04-22 20:30 34.76389 13.70378 36958 ft 468 kts 37°
2026-04-22 20:31 34.81289 13.75598 36958 ft 468 kts 37°
2026-04-22 20:31 34.86180 13.80833 36961 ft 468 kts 37°
2026-04-22 20:32 34.91062 13.86074 36962 ft 468 kts 37°
2026-04-22 20:32 34.95948 13.91329 36964 ft 467 kts 37°
2026-04-22 20:33 35.00816 13.96577 36966 ft 468 kts 37°
2026-04-22 20:33 35.05666 14.01809 36971 ft 468 kts 37°
2026-04-22 20:34 35.10540 14.07075 36966 ft 467 kts 37°
2026-04-22 20:34 35.15406 14.12345 36971 ft 467 kts 37°
2026-04-22 20:35 35.20268 14.17615 36967 ft 467 kts 37°
2026-04-22 20:35 35.25124 14.22896 36968 ft 467 kts 37°
2026-04-22 20:36 35.29824 14.28010 36976 ft 467 kts 37°
2026-04-22 20:36 35.34681 14.33306 36979 ft 467 kts 37°
2026-04-22 20:37 35.39537 14.38599 36974 ft 467 kts 37°
2026-04-22 20:37 35.44353 14.43881 36977 ft 467 kts 37°
2026-04-22 20:38 35.49198 14.49205 36983 ft 468 kts 37°
2026-04-22 20:38 35.54036 14.54523 36974 ft 467 kts 37°
2026-04-22 20:39 35.58881 14.59844 36979 ft 467 kts 36°
2026-04-22 20:39 35.63730 14.65171 36981 ft 467 kts 36°
2026-04-22 20:40 35.68568 14.70504 36983 ft 467 kts 36°
2026-04-22 20:40 35.73406 14.75842 36987 ft 467 kts 36°
2026-04-22 20:41 35.78246 14.81182 36992 ft 467 kts 36°
2026-04-22 20:41 35.83076 14.86534 36995 ft 467 kts 36°
2026-04-22 20:42 35.87902 14.91888 37004 ft 467 kts 36°
2026-04-22 20:42 35.92720 14.97247 36998 ft 467 kts 36°
2026-04-22 20:43 35.97539 15.02621 37006 ft 466 kts 36°
2026-04-22 20:43 36.02323 15.07958 37006 ft 466 kts 36°
2026-04-22 20:44 36.07129 15.13328 37006 ft 466 kts 36°
2026-04-22 20:44 36.11934 15.18708 37006 ft 465 kts 36°
2026-04-22 20:45 36.16713 15.24073 37008 ft 464 kts 36°
2026-04-22 20:45 36.21505 15.29457 37013 ft 464 kts 36°
2026-04-22 20:46 36.28665 15.37525 37018 ft 464 kts 36°
2026-04-22 20:46 36.33444 15.42913 37024 ft 464 kts 36°
2026-04-22 20:47 36.38221 15.48311 37023 ft 464 kts 36°
2026-04-22 20:47 36.42965 15.53682 37027 ft 464 kts 36°
2026-04-22 20:48 36.47729 15.59094 37027 ft 464 kts 36°
2026-04-22 20:48 36.52213 15.64971 37029 ft 472 kts 44°
2026-04-22 20:49 36.56373 15.71291 37028 ft 473 kts 45°
2026-04-22 20:49 36.60537 15.77639 37032 ft 472 kts 45°
2026-04-22 20:50 36.64694 15.83970 37029 ft 472 kts 45°
2026-04-22 20:50 36.68857 15.90300 37034 ft 472 kts 44°
2026-04-22 20:51 36.73016 15.96626 37035 ft 472 kts 45°
2026-04-22 20:51 36.76468 16.01896 37040 ft 472 kts 45°
2026-04-22 20:52 36.80619 16.08254 37034 ft 472 kts 45°
2026-04-22 20:52 36.84823 16.14531 37036 ft 468 kts 39°
2026-04-22 20:53 36.87250 16.17179 37035 ft 458 kts 28°
2026-04-22 20:53 36.89921 16.19278 37041 ft 452 kts 22°
2026-04-22 20:53 36.95372 16.23106 37039 ft 452 kts 22°
2026-04-22 20:54 37.00868 16.27013 37037 ft 452 kts 22°
2026-04-22 20:54 37.06298 16.30911 37037 ft 452 kts 22°
2026-04-22 20:55 37.11747 16.34834 37041 ft 453 kts 23°
2026-04-22 20:55 37.17206 16.38779 37041 ft 452 kts 22°
2026-04-22 20:56 37.22669 16.42724 37042 ft 453 kts 23°
2026-04-22 20:56 37.28128 16.46674 37044 ft 453 kts 23°
2026-04-22 20:57 37.33584 16.50629 37048 ft 453 kts 22°
2026-04-22 20:57 37.39022 16.54545 37053 ft 454 kts 23°
2026-04-22 20:58 37.44499 16.58521 37052 ft 454 kts 23°
2026-04-22 20:58 37.49982 16.62511 37050 ft 455 kts 23°
2026-04-22 20:59 37.55462 16.66507 37053 ft 456 kts 23°
2026-04-22 20:59 37.60959 16.70519 37059 ft 457 kts 23°
2026-04-22 21:00 37.66431 16.74521 37049 ft 457 kts 23°
2026-04-22 21:00 37.71972 16.78582 37047 ft 458 kts 23°
2026-04-22 21:01 37.77448 16.82616 37056 ft 459 kts 24°
2026-04-22 21:01 37.82969 16.86701 37058 ft 459 kts 24°
2026-04-22 21:02 37.88487 16.90760 37058 ft 459 kts 24°
2026-04-22 21:02 37.94014 16.94842 37060 ft 459 kts 24°
2026-04-22 21:03 37.99534 16.98927 37057 ft 459 kts 24°
2026-04-22 21:03 38.05057 17.02994 37059 ft 459 kts 23°
2026-04-22 21:04 38.10573 17.07070 37059 ft 459 kts 24°
2026-04-22 21:04 38.16078 17.11185 37058 ft 459 kts 24°
2026-04-22 21:05 38.21592 17.15275 37065 ft 458 kts 23°
2026-04-22 21:05 38.27063 17.19343 37062 ft 458 kts 23°
2026-04-22 21:06 38.32595 17.23479 37063 ft 458 kts 23°
2026-04-22 21:06 38.38085 17.27583 37063 ft 457 kts 23°
2026-04-22 21:07 38.43537 17.31671 37063 ft 457 kts 23°
2026-04-22 21:07 38.49021 17.35791 37066 ft 458 kts 23°
2026-04-22 21:08 38.54504 17.39921 37069 ft 457 kts 23°
2026-04-22 21:08 38.59985 17.44054 37069 ft 457 kts 23°
2026-04-22 21:09 38.65475 17.48194 37069 ft 457 kts 23°
2026-04-22 21:09 38.70952 17.52332 37068 ft 457 kts 23°
2026-04-22 21:10 38.76424 17.56486 37065 ft 457 kts 23°
2026-04-22 21:10 38.81860 17.60605 37067 ft 457 kts 23°
2026-04-22 21:11 38.87340 17.64771 37071 ft 457 kts 23°
2026-04-22 21:11 38.92810 17.68940 37071 ft 458 kts 23°
2026-04-22 21:12 38.98293 17.73126 37173 ft 459 kts 23°
2026-04-22 21:12 39.01038 17.75232 37332 ft 459 kts 23°
2026-04-22 21:12 39.03790 17.77339 37492 ft 458 kts 23°
2026-04-22 21:13 39.06535 17.79442 37662 ft 458 kts 23°
2026-04-22 21:13 39.09260 17.81538 37786 ft 458 kts 24°
2026-04-22 21:13 39.12007 17.83654 37912 ft 458 kts 23°
2026-04-22 21:13 39.14753 17.85754 38046 ft 458 kts 23°
2026-04-22 21:14 39.17460 17.87825 38155 ft 459 kts 23°
2026-04-22 21:14 39.20194 17.89922 38267 ft 459 kts 23°
2026-04-22 21:14 39.22944 17.92037 38382 ft 459 kts 24°
2026-04-22 21:14 39.25691 17.94153 38493 ft 459 kts 24°
2026-04-22 21:15 39.28434 17.96269 38596 ft 459 kts 24°
2026-04-22 21:15 39.31175 17.98385 38698 ft 459 kts 24°
2026-04-22 21:15 39.36666 18.02634 38845 ft 460 kts 24°
2026-04-22 21:16 39.42161 18.06889 38962 ft 461 kts 24°
2026-04-22 21:16 39.47668 18.11161 39059 ft 462 kts 24°
2026-04-22 21:17 39.53194 18.15457 39076 ft 464 kts 24°
2026-04-22 21:17 39.58720 18.19763 39073 ft 463 kts 24°
2026-04-22 21:18 39.64235 18.24067 39071 ft 463 kts 24°
2026-04-22 21:18 39.69758 18.28388 39065 ft 463 kts 24°
2026-04-22 21:19 39.75266 18.32702 39067 ft 462 kts 24°
2026-04-22 21:19 39.80728 18.36988 39066 ft 462 kts 24°
2026-04-22 21:20 39.86256 18.41336 39067 ft 461 kts 24°
2026-04-22 21:20 39.91701 18.45626 39062 ft 459 kts 24°
2026-04-22 21:21 39.97161 18.49939 39053 ft 459 kts 24°
2026-04-22 21:21 40.02628 18.54259 39054 ft 458 kts 24°
2026-04-22 21:22 40.08079 18.58576 39050 ft 458 kts 24°
2026-04-22 21:22 40.13525 18.62901 39048 ft 457 kts 24°
2026-04-22 21:23 40.18961 18.67225 39049 ft 457 kts 24°
2026-04-22 21:23 40.24392 18.71552 39047 ft 456 kts 24°
2026-04-22 21:24 40.29792 18.75863 39043 ft 457 kts 24°
2026-04-22 21:24 40.35214 18.80214 39049 ft 456 kts 24°
2026-04-22 21:25 40.40629 18.84544 39051 ft 456 kts 24°
2026-04-22 21:25 40.46038 18.88892 39050 ft 455 kts 24°
2026-04-22 21:26 40.51427 18.93232 39046 ft 454 kts 24°
2026-04-22 21:26 40.56823 18.97591 39045 ft 456 kts 26°
2026-04-22 21:27 40.61563 19.03334 39034 ft 477 kts 47°
2026-04-22 21:27 40.65248 19.10647 39052 ft 481 kts 51°
2026-04-22 21:28 40.68867 19.17999 39034 ft 481 kts 50°
2026-04-22 21:28 40.72565 19.25409 39025 ft 481 kts 50°
2026-04-22 21:29 40.76225 19.32741 39023 ft 481 kts 50°
2026-04-22 21:29 40.79902 19.40140 39022 ft 482 kts 51°
2026-04-22 21:30 40.83583 19.47554 39018 ft 483 kts 51°
2026-04-22 21:30 40.87261 19.54981 39017 ft 483 kts 51°
2026-04-22 21:31 40.90937 19.62420 39012 ft 484 kts 51°
2026-04-22 21:31 40.94604 19.69865 39005 ft 483 kts 51°
2026-04-22 21:32 40.98126 19.77039 39001 ft 483 kts 51°
2026-04-22 21:32 41.01785 19.84495 39016 ft 482 kts 51°
2026-04-22 21:33 41.05433 19.91955 39027 ft 482 kts 52°
2026-04-22 21:33 41.09076 19.99421 39035 ft 483 kts 52°
2026-04-22 21:34 41.12719 20.06904 39037 ft 482 kts 52°
2026-04-22 21:34 41.16352 20.14381 39043 ft 483 kts 52°
2026-04-22 21:35 41.19972 20.21858 39052 ft 482 kts 52°
2026-04-22 21:35 41.23592 20.29349 39057 ft 482 kts 52°
2026-04-22 21:36 41.27210 20.36845 39060 ft 481 kts 52°
2026-04-22 21:36 41.30810 20.44329 39074 ft 480 kts 53°
2026-04-22 21:37 41.34045 20.52145 39083 ft 488 kts 64°
2026-04-22 21:37 41.36397 20.60593 39087 ft 487 kts 66°
2026-04-22 21:38 41.38319 20.67649 39095 ft 488 kts 66°
2026-04-22 21:38 41.41032 20.77494 39108 ft 488 kts 66°
2026-04-22 21:39 41.43363 20.85979 39114 ft 487 kts 66°
2026-04-22 21:39 41.45689 20.94464 39113 ft 488 kts 66°
2026-04-22 21:40 41.47634 21.01582 39118 ft 488 kts 66°
2026-04-22 21:40 41.49946 21.10079 39118 ft 487 kts 66°
2026-04-22 21:41 41.52251 21.18586 39116 ft 487 kts 66°
2026-04-22 21:41 41.54543 21.27089 39127 ft 488 kts 67°
2026-04-22 21:42 41.56838 21.35624 39117 ft 488 kts 67°
2026-04-22 21:42 41.59119 21.44126 39105 ft 489 kts 67°
2026-04-22 21:43 41.61400 21.52625 39105 ft 488 kts 67°
2026-04-22 21:43 41.63697 21.61226 39105 ft 488 kts 67°
2026-04-22 21:44 41.65963 21.69751 39098 ft 489 kts 67°
2026-04-22 21:44 41.68236 21.78325 39088 ft 488 kts 68°
2026-04-22 21:45 41.69364 21.82590 38670 ft 485 kts 68°
2026-04-22 21:45 41.70494 21.86868 37744 ft 490 kts 67°
2026-04-22 21:45 41.71632 21.91193 36825 ft 494 kts 67°
2026-04-22 21:45 41.72770 21.95532 35983 ft 496 kts 67°
2026-04-22 21:46 41.73916 21.99907 35143 ft 497 kts 67°
2026-04-22 21:46 41.75061 22.04281 34337 ft 499 kts 66°
2026-04-22 21:46 41.76214 22.08689 33370 ft 502 kts 66°
2026-04-22 21:46 41.77368 22.13109 32375 ft 505 kts 66°
2026-04-22 21:47 41.78522 22.17571 31351 ft 509 kts 67°
2026-04-22 21:47 41.79684 22.22068 30333 ft 513 kts 67°
2026-04-22 21:47 41.80855 22.26604 29194 ft 515 kts 67°
2026-04-22 21:47 41.82028 22.31151 28177 ft 514 kts 68°
2026-04-22 21:48 41.83191 22.35662 27287 ft 509 kts 68°
2026-04-22 21:48 41.84344 22.40133 26369 ft 506 kts 68°
2026-04-22 21:48 41.85494 22.44579 25610 ft 504 kts 68°
2026-04-22 21:48 41.86640 22.49004 25224 ft 501 kts 69°
2026-04-22 21:49 41.87762 22.53355 24938 ft 498 kts 69°
2026-04-22 21:49 41.88886 22.57726 24486 ft 493 kts 69°
2026-04-22 21:49 41.89991 22.62054 23914 ft 486 kts 69°
2026-04-22 21:49 41.91077 22.66321 23216 ft 479 kts 69°
2026-04-22 21:50 41.92148 22.70525 22475 ft 471 kts 70°
2026-04-22 21:50 41.93198 22.74661 21734 ft 463 kts 70°
2026-04-22 21:50 41.94227 22.78713 21011 ft 454 kts 70°
2026-04-22 21:50 41.95237 22.82699 20312 ft 446 kts 70°
2026-04-22 21:51 41.96334 22.86548 19616 ft 437 kts 63°
2026-04-22 21:51 41.97931 22.89956 18934 ft 427 kts 50°
2026-04-22 21:51 41.99946 22.92833 18274 ft 419 kts 43°
2026-04-22 21:52 42.04081 22.98247 16803 ft 411 kts 43°
2026-04-22 21:52 42.06113 23.00932 16090 ft 406 kts 44°
2026-04-22 21:52 42.08113 23.03597 15391 ft 403 kts 44°
2026-04-22 21:52 42.10074 23.06222 14726 ft 400 kts 44°
2026-04-22 21:53 42.12036 23.08848 14056 ft 396 kts 44°
2026-04-22 21:53 42.13989 23.11463 13340 ft 393 kts 44°
2026-04-22 21:53 42.15903 23.14029 12617 ft 384 kts 44°
2026-04-22 21:53 42.17785 23.16555 11912 ft 377 kts 44°
2026-04-22 21:54 42.19618 23.19019 11220 ft 368 kts 44°
2026-04-22 21:54 42.21416 23.21436 10574 ft 360 kts 44°
2026-04-22 21:54 42.23155 23.23776 10184 ft 346 kts 44°
2026-04-22 21:54 42.24811 23.26008 10063 ft 325 kts 44°
2026-04-22 21:55 42.26372 23.28111 10038 ft 313 kts 44°
2026-04-22 21:55 42.27389 23.29482 10046 ft 313 kts 44°
2026-04-22 21:55 42.27815 23.30060 10047 ft 313 kts 44°
2026-04-22 21:56 42.28062 23.30397 10048 ft 313 kts 45°
2026-04-22 21:56 42.29465 23.32189 10050 ft 313 kts 39°
2026-04-22 21:56 42.31196 23.33943 9943 ft 307 kts 35°
2026-04-22 21:56 42.32930 23.35616 9302 ft 305 kts 35°
2026-04-22 21:57 42.34652 23.37276 8608 ft 304 kts 35°
2026-04-22 21:57 42.36370 23.38937 8144 ft 303 kts 35°
2026-04-22 21:57 42.38038 23.40556 7977 ft 285 kts 35°
2026-04-22 21:57 42.39594 23.42066 7950 ft 270 kts 35°
2026-04-22 21:58 42.41117 23.43548 7964 ft 269 kts 35°
2026-04-22 21:58 42.42634 23.45024 7975 ft 269 kts 35°
2026-04-22 21:58 42.44145 23.46496 7895 ft 265 kts 34°
2026-04-22 21:58 42.45736 23.47729 7397 ft 262 kts 20°
2026-04-22 21:59 42.47473 23.48448 6896 ft 261 kts 15°
2026-04-22 21:59 42.49220 23.49106 6420 ft 260 kts 15°
2026-04-22 21:59 42.50953 23.49775 5899 ft 258 kts 15°
2026-04-22 21:59 42.52678 23.50454 5397 ft 258 kts 16°
2026-04-22 22:00 42.54393 23.51138 5042 ft 253 kts 16°
2026-04-22 22:00 42.56024 23.51794 4961 ft 235 kts 16°
2026-04-22 22:00 42.57546 23.52409 4943 ft 226 kts 16°
2026-04-22 22:00 42.59058 23.53024 4972 ft 227 kts 17°
2026-04-22 22:01 42.60440 23.54004 4870 ft 224 kts 43°
2026-04-22 22:01 42.61170 23.55799 4447 ft 221 kts 81°
2026-04-22 22:01 42.60959 23.57800 4171 ft 212 kts 109°
2026-04-22 22:01 42.60459 23.59585 4012 ft 193 kts 107°
2026-04-22 22:02 42.60141 23.61286 3704 ft 188 kts 99°
2026-04-22 22:02 42.60112 23.63040 3475 ft 187 kts 80°
2026-04-22 22:02 42.60562 23.64689 3463 ft 187 kts 58°
2026-04-22 22:02 42.61430 23.65986 3479 ft 186 kts 36°
2026-04-22 22:03 42.62583 23.66729 3491 ft 185 kts 14°
2026-04-22 22:03 42.63857 23.66828 3496 ft 185 kts 354°
2026-04-22 22:03 42.65116 23.66528 3498 ft 184 kts 349°
2026-04-22 22:03 42.66379 23.66221 3502 ft 184 kts 350°
2026-04-22 22:04 42.67616 23.65771 3488 ft 184 kts 334°
2026-04-22 22:04 42.68472 23.64517 3473 ft 187 kts 291°
2026-04-22 22:04 42.68620 23.62761 3514 ft 188 kts 271°
2026-04-22 22:04 42.68595 23.61005 3506 ft 179 kts 271°
2026-04-22 22:05 42.68615 23.59374 3495 ft 164 kts 274°
2026-04-22 22:05 42.68684 23.57813 3510 ft 167 kts 275°
2026-04-22 22:05 42.68773 23.56238 3507 ft 166 kts 276°
2026-04-22 22:05 42.68862 23.54734 3394 ft 153 kts 276°
2026-04-22 22:06 42.68946 23.53335 3190 ft 146 kts 276°
2026-04-22 22:06 42.69027 23.51992 2965 ft 140 kts 276°
2026-04-22 22:06 42.69105 23.50684 2750 ft 138 kts 276°
2026-04-22 22:06 42.69184 23.49380 2563 ft 139 kts 275°
2026-04-22 22:07 42.69260 23.48109 2386 ft 140 kts 275°
2026-04-22 22:07 42.69340 23.46787 2207 ft 141 kts 274°
2026-04-22 22:07 42.69420 23.45459 2015 ft 140 kts 274°
2026-04-22 22:07 42.69500 23.44140 1833 ft 139 kts 274°
2026-04-22 22:08 42.69577 23.42874 1764 ft 127 kts 274°
2026-04-22 22:08 42.69635 23.41916 1763 ft 61 kts 274°
2026-04-22 22:08 42.69621 23.41698 1764 ft 15 kts 254°
2026-04-22 22:08 42.69580 23.41557 1761 ft 17 kts 245°
2026-04-22 22:09 42.69566 23.41518 1750 ft 3 kts 246°
2026-04-22 22:09 42.69553 23.41479 1757 ft 6 kts 248°
2026-04-22 22:09 42.69534 23.41421 1751 ft 8 kts 246°
2026-04-22 22:09 42.69507 23.41340 1752 ft 10 kts 247°
2026-04-22 22:10 42.69487 23.41269 1749 ft 6 kts 249°
2026-04-22 22:10 42.69454 23.41222 1755 ft 8 kts 203°
2026-04-22 22:10 42.69390 23.41198 1748 ft 11 kts 192°
2026-04-22 22:10 42.69309 23.41176 1753 ft 12 kts 191°
2026-04-22 22:11 42.69239 23.41157 1758 ft 11 kts 192°
2026-04-22 22:11 42.69201 23.41147 1748 ft 3 kts 193°
2026-04-22 22:11 42.69171 23.41138 1751 ft 7 kts 192°
2026-04-22 22:11 42.69128 23.41097 1755 ft 9 kts 241°
2026-04-22 22:12 42.69104 23.41005 1751 ft 11 kts 253°
2026-04-22 22:12 42.69077 23.40892 1758 ft 14 kts 252°
2026-04-22 22:12 42.69059 23.40789 1754 ft 11 kts 271°
2026-04-22 22:12 42.69080 23.40677 1755 ft 13 kts 288°
2026-04-22 22:13 42.69109 23.40548 1754 ft 15 kts 288°
2026-04-22 22:13 42.69133 23.40440 1753 ft 9 kts 288°
2026-04-22 22:13 42.69153 23.40355 1752 ft 7 kts 288°
2026-04-22 22:13 42.69169 23.40285 1755 ft 6 kts 288°
2026-04-22 22:14 42.69156 23.40244 1752 ft 2 kts 185°
2026-04-22 22:14 42.69134 23.40237 1758 ft 4 kts 198°
2026-04-22 22:14 42.69112 23.40228 1758 ft 0 kts 197°
2026-04-22 22:14 42.69106 23.40226 1758 ft 0 kts 198°